パンスターズ彗星

P/2024 OC2 ( PanSTARRS )

English version
Home page
Updated on March 23, 2025

---------------------------------------------------------------------

・ プロフィール

発見日 2024年7月28日
発見光度 21.8等
発見者 Pan-STARRS 1 telescope (Haleakala)

・ 軌道要素

Epoch 2024 Oct. 17.0 TT = JDT 2460600.5
T 2024 Oct.  9.32764 TT                                 Pike
q   0.5928344            (2000.0)            P               Q
n   0.23162514     Peri.  258.53898     +0.81155041     -0.57704379
a   2.6259044      Node   136.61826     +0.57449738     +0.75947512
e   0.7742361      Incl.    7.67115     +0.10648328     +0.30036314
P   4.26
From 44 observations 2024 July 9-2025 Jan. 2, mean residual 0".6.

・ 星図

・ 光度変化

        m1 = 20.0 + 5 logΔ + 10.0 log r

---------------------------------------------------------------------

軌道要素はM.P.E.C. 2025-A174に掲載されたものです。
星図はステラナビゲータ Ver.11 (アストロアーツ) で作成したものです。
光度グラフはComet for Windowsで作成したものです。

---------------------------------------------------------------------

Copyright(C) Seiichi Yoshida (comet@aerith.net). All rights reserved.